[[{"header":{"parameterUnit":"m.s-1","parameterCategory":2,"la1":30.2991,"la2":30.254,"lo1":-89.0895,"lo2":-89.0444,"dy":0.0017,"dx":0.0017,"nx":28,"ny":28,"refTime":"2024-06-11T03:00:00:Z","depth":"0","parameterNumber":2,"parameterNumberName":"U-component_of_CURRENTS"},"data":[0,0,0,0,0,0,0,0,0,0,0,0,0,0,0,0,0,0,0,0,0,0,0,0,0,0,0,0,0,0,0,0,0,0,0,0,0,0,0,0,0,0,0,0,0,0,0,0,0,0,0,0,0,0,0,0,0,0,0.1693,0.1695,0,0.1905,0.1908,0.1912,0.199,0.1989,0.1987,0.1985,0.2177,0.2183,0.219,0,0,0,0,0,0,0,0,0,0,0,0,0,0.1631,0.1631,0.1693,0.1695,0.1696,0.1904,0.1908,0.1912,0.1991,0.1989,0.1986,0.1984,0.2175,0.2183,0.2191,0,0,0,0,0,0,0,0,0,0,0,0,0,0.1742,0.1631,0.1693,0.1752,0.1758,0.1904,0.1909,0.1913,0.1991,0.1989,0.1986,0.1983,0.2172,0.2182,0.2192,0.2306,0,0,0.2223,0.2227,0,0,0,0,0,0,0,0,0.1735,0.1746,0.1742,0.1748,0.1755,0.1908,0.1956,0.204,0.1992,0.1915,0.1985,0.1982,0.208,0.2097,0.216,0.2315,0.2324,0.2223,0.223,0.2234,0.2237,0,0,0,0,0,0,0,0.1727,0.1738,0.1789,0.1743,0.1752,0.1861,0.1873,0.1975,0.2018,0.1922,0.1925,0.1931,0.2084,0.215,0.2164,0.2326,0.2223,0.2232,0.2238,0.2242,0.2536,0.2538,0,0,0,0,0,0,0.1666,0.173,0.1782,0.1794,0.1726,0.1862,0.1876,0.1871,0.2018,0.2034,0.1933,0.1933,0.2134,0.2153,0.2171,0.2312,0.2234,0.2243,0.2249,0.2535,0.2537,0.2539,0,0,0,0,0,0,0.1664,0.1668,0.1773,0.1759,0.1778,0.1862,0.1859,0.1877,0.1936,0.2024,0.2042,0.197,0.2133,0.2157,0.2293,0.2319,0.2248,0.2257,0.2533,0.2535,0.2538,0.2594,0,0,0,0,0,0,0.1661,0.1666,0.1665,0.1753,0.1775,0.1872,0.1861,0.1882,0.1938,0.1942,0.2063,0.2079,0.2132,0.2278,0.2303,0.2331,0.2265,0.253,0.2534,0.2537,0.259,0.2598,0.2606,0,0,0,0,0,0.1658,0.1662,0.1663,0.167,0.1762,0.1873,0.1899,0.1958,0.1942,0.1998,0.2082,0.2075,0.2313,0.2291,0.2319,0.235,0.2529,0.2533,0.2537,0.2587,0.2597,0.2605,0,0,0,0,0,0,0.165,0.1672,0.1675,0.1687,0.1774,0.1882,0.1927,0.1962,0.2077,0.2071,0.2143,0.2169,0.2289,0.2317,0.2289,0.2438,0.2402,0.2412,0.243,0.2441,0.2448,0.2421,0.2273,0,0,0,0,0,0.1637,0.1637,0.1702,0.1721,0.1752,0.184,0.1891,0.1935,0.2031,0.2077,0.2163,0.224,0.2333,0.2383,0.2475,0.2585,0.258,0.2605,0.2613,0.262,0.2615,0.2696,0.2711,0.2552,0.2552,0.2552,0,0,0.1638,0.1651,0.1652,0.1719,0.1782,0.1876,0.1869,0.1949,0.2036,0.2082,0.2229,0.229,0.2372,0.2495,0.2544,0.2519,0.265,0.2625,0.263,0.2621,0.2702,0.2717,0.2731,0.2554,0.2554,0.2554,0,0,0.1654,0.1652,0.1666,0.1744,0.1823,0.1898,0.1914,0.203,0.2084,0.2234,0.227,0.2358,0.2511,0.2578,0.2625,0.2732,0.2698,0.2725,0.2746,0.2826,0.284,0.2852,0.2808,0.2816,0.2719,0.2719,0.2719,0,0.1658,0.1681,0.1703,0.1767,0.1835,0.1903,0.1987,0.2079,0.2232,0.2272,0.2279,0.248,0.2556,0.2678,0.271,0.2752,0.2741,0.2708,0.2837,0.2849,0.2861,0.2813,0.2821,0.2723,0.2722,0.2722,0.2722,0,0.1707,0.1743,0.1771,0.1863,0.1954,0.2037,0.2149,0.2237,0.2295,0.2367,0.2489,0.2601,0.2698,0.2729,0.2766,0.2866,0.2808,0.2846,0.2811,0.288,0.2825,0.2832,0.2727,0.2726,0.2725,0.2724,0,0,0.1674,0.1775,0.1789,0.1852,0.2005,0.2091,0.2222,0.2352,0.2411,0.2534,0.2609,0.2767,0.2766,0.2818,0.2854,0.2917,0.2987,0.2906,0.2908,0.2855,0.3065,0.2781,0.2761,0.3049,0.3052,0.3055,0.2971,0,0.1713,0.1808,0.1871,0.2028,0.2102,0.2213,0.2335,0.2456,0.254,0.2639,0.2702,0.2802,0.2816,0.2848,0.2922,0.2988,0.3017,0.2999,0.3011,0.3009,0.2747,0.2766,0.2581,0.2471,0.2978,0.298,0.298,0,0.175,0.181,0.1918,0.2085,0.2128,0.2239,0.2406,0.2527,0.2651,0.2699,0.2771,0.2818,0.2917,0.2927,0.3039,0.302,0.3039,0.307,0.3069,0.2791,0.2741,0.2498,0.2465,0.2385,0.2992,0.2991,0.299,0,0.1707,0.1862,0.1935,0.2001,0.2192,0.2259,0.2376,0.252,0.2604,0.2716,0.2754,0.2865,0.2916,0.2996,0.3026,0.3053,0.3105,0.3163,0.2904,0.2881,0.2715,0.2669,0.2603,0.3237,0.3238,0.3238,0.3238,0,0.1723,0.1802,0.1913,0.1965,0.2089,0.223,0.2354,0.2465,0.2591,0.2667,0.2762,0.2809,0.2947,0.298,0.3019,0.2926,0.3097,0.288,0.2854,0.2715,0.2673,0.2588,0.259,0.3235,0.3235,0.3236,0.3237,0,0.1676,0.1742,0.1849,0.2007,0.2063,0.2152,0.2345,0.2426,0.2536,0.2628,0.2659,0.2783,0.279,0.2837,0.2933,0.2869,0.2729,0.2778,0.2518,0.246,0.2094,0.2105,0.1937,0.1903,0.2472,0.2465,0.2459,0,0.1664,0.1693,0.1839,0.1898,0.1969,0.2107,0.2201,0.2374,0.2444,0.2592,0.2618,0.2651,0.2643,0.2583,0.249,0.2401,0.2447,0.2144,0.2175,0.2002,0.2004,0.2015,0.2006,0.1972,0.1962,0.1954,0.1948,0,0.1648,0.1673,0.1741,0.1839,0.1939,0.2068,0.2197,0.2244,0.2416,0.2461,0.25,0.2503,0.2383,0.2186,0.2005,0.1951,0.1977,0.1967,0.1938,0.1688,0.1559,0.1535,0.2027,0.1877,0.1884,0.1889,0.1893,0.1896,0.1626,0.1644,0.1704,0.1799,0.1907,0.2008,0.2062,0.2151,0.2225,0.2246,0.2321,0.2203,0.1972,0.1679,0.16,0.1249,0.144,0.1181,0.1228,0.1269,0.1169,0.1391,0.1119,0.1122,0.1124,0.1126,0.1128,0,0.1607,0.1615,0.168,0.1777,0.1845,0.194,0.2046,0.2048,0.2042,0.2014,0.1985,0.1639,0.1352,0.1137,0.0723,0.0573,0.0659,0.0533,0.0612,0.0666,0.0982,0.0891,0.0376,0.0376,0.0376,0.0376,0.0376,0.0376,0.1602,0.1611,0.1621,0.1692,0.1754,0.1814,0.1848,0.1823,0.178,0.1558,0.1313,0.1205,0.0893,0.0463,0.014,0.0122,0.0196,0.0065,0.0215,0.0514,0.0584,0.0651,0.0567,-0.0008,-0.0008,-0.0126,-0.0128,-0.0129]},{"header":{"parameterUnit":"m.s-1","parameterCategory":2,"la1":30.2991,"la2":30.254,"lo1":-89.0895,"lo2":-89.0444,"dy":0.0017,"dx":0.0017,"nx":28,"ny":28,"refTime":"2024-06-11T03:00:00:Z","depth":"0","parameterNumber":3,"parameterNumberName":"V-component_of_CURRENTS"},"data":[0,0,0,0,0,0,0,0,0,0,0,0,0,0,0,0,0,0,0,0,0,0,0,0,0,0,0,0,0,0,0,0,0,0,0,0,0,0,0,0,0,0,0,0,0,0,0,0,0,0,0,0,0,0,0,0,0,0,-0.0019,-0.002,0,-0.016,-0.0163,-0.0165,-0.0257,-0.0257,-0.0256,-0.0256,-0.0383,-0.0387,-0.039,0,0,0,0,0,0,0,0,0,0,0,0,0,0.0034,0.0034,-0.0019,-0.002,-0.0021,-0.016,-0.0163,-0.0166,-0.0257,-0.0257,-0.0256,-0.0256,-0.0382,-0.0386,-0.039,0,0,0,0,0,0,0,0,0,0,0,0,0,-0.0045,0.0034,-0.0019,-0.0076,-0.0082,-0.0159,-0.0163,-0.0166,-0.0257,-0.0257,-0.0256,-0.0256,-0.038,-0.0386,-0.0391,-0.0433,0,0,-0.0408,-0.041,0,0,0,0,0,0,0,0,-0.004,-0.0048,-0.0067,-0.0072,-0.0079,-0.0182,-0.019,-0.0252,-0.0257,-0.0201,-0.0256,-0.0256,-0.0309,-0.032,-0.0361,-0.0439,-0.0444,-0.0408,-0.0411,-0.0414,-0.0415,0,0,0,0,0,0,0,-0.0034,-0.0043,-0.0084,-0.0068,-0.0075,-0.0141,-0.0152,-0.0204,-0.0262,-0.0205,-0.021,-0.0211,-0.0313,-0.0356,-0.0364,-0.0446,-0.0408,-0.0413,-0.0416,-0.0418,-0.0458,-0.0456,0,0,0,0,0,0,0.0009,-0.0037,-0.008,-0.0088,-0.0048,-0.0141,-0.0154,-0.0157,-0.0262,-0.0275,-0.0211,-0.0215,-0.0347,-0.0358,-0.0369,-0.0359,-0.0414,-0.0419,-0.0422,-0.046,-0.0457,-0.0455,0,0,0,0,0,0,0.001,0.0006,-0.0074,-0.0058,-0.0072,-0.0141,-0.0145,-0.016,-0.0204,-0.0265,-0.028,-0.0238,-0.0347,-0.0361,-0.0408,-0.0367,-0.0421,-0.0426,-0.0462,-0.0459,-0.0456,-0.0381,0,0,0,0,0,0,0.0012,0.0007,0.0009,-0.0055,-0.007,-0.0122,-0.0145,-0.0163,-0.02,-0.0207,-0.0293,-0.0304,-0.0348,-0.04,-0.0414,-0.0375,-0.0431,-0.0465,-0.0461,-0.0457,-0.0386,-0.0376,-0.0366,0,0,0,0,0,0.0015,0.0018,0.0009,0.0004,-0.0063,-0.0121,-0.0138,-0.0192,-0.0201,-0.023,-0.0272,-0.0302,-0.0381,-0.0404,-0.0421,-0.0383,-0.0467,-0.0462,-0.0457,-0.0391,-0.0378,-0.0367,0,0,0,0,0,0,0.0035,0.0008,-0.0003,-0.0009,-0.0058,-0.0133,-0.0154,-0.019,-0.0251,-0.0247,-0.0309,-0.0325,-0.0337,-0.0372,-0.0396,-0.0374,-0.0414,-0.0413,-0.0358,-0.0346,-0.0336,-0.0305,-0.0435,0,0,0,0,0,0.0047,0.0045,-0.0001,-0.0008,-0.0023,-0.0088,-0.0119,-0.0154,-0.0206,-0.0235,-0.0289,-0.0319,-0.0331,-0.035,-0.038,-0.0398,-0.0385,-0.0368,-0.0358,-0.035,-0.0331,-0.0265,-0.0247,-0.0438,-0.0438,-0.0438,0,0,0.0054,0.004,0.0038,-0.0004,-0.0042,-0.0073,-0.0109,-0.0146,-0.0167,-0.0236,-0.028,-0.03,-0.0327,-0.0332,-0.0338,-0.0359,-0.029,-0.0344,-0.0337,-0.0322,-0.0258,-0.0239,-0.0223,-0.0435,-0.0436,-0.0436,0,0,0.0069,0.0057,0.0059,0.0022,-0.0017,-0.0059,-0.0064,-0.0133,-0.0156,-0.0203,-0.0221,-0.0214,-0.0285,-0.027,-0.0273,-0.0225,-0.024,-0.0227,-0.0161,-0.0097,-0.0081,-0.0066,-0.0036,-0.0019,-0.0222,-0.0222,-0.0222,0,0.0078,0.0075,0.0044,0.0031,0.001,-0.0046,-0.0061,-0.0098,-0.0174,-0.0163,-0.0202,-0.0209,-0.0241,-0.0191,-0.017,-0.02,-0.0182,-0.0212,-0.0084,-0.0069,-0.0055,-0.0028,-0.001,-0.0218,-0.0218,-0.0219,-0.0219,0,0.0087,0.008,0.0077,0.0049,0.0016,-0.0007,-0.0047,-0.0065,-0.0092,-0.0112,-0.0082,-0.0117,-0.0105,-0.0102,-0.0134,-0.0035,-0.006,-0.008,-0.0116,-0.0031,-0.0008,0.0009,-0.0212,-0.0213,-0.0214,-0.0215,0,0,0.0117,0.0091,0.0089,0.0087,0.0027,0.0007,-0.0001,-0.0011,0.0024,-0.0024,0.0029,0.0023,0.0032,0.0034,0.0023,0.0072,0.0172,0.0038,0.0039,0.0065,0.0297,0.0277,0.0293,0.0173,0.0177,0.0179,0.027,0,0.013,0.0128,0.0103,0.0091,0.0084,0.0049,0.0053,0.0047,0.0043,0.0077,0.0099,0.0131,0.0077,0.0105,0.0149,0.0174,0.0222,0.0148,0.0214,0.0216,0.0187,0.0314,0.0328,0.0412,0.0286,0.0289,0.0291,0,0.0143,0.0143,0.0144,0.0143,0.0141,0.013,0.0159,0.0155,0.0203,0.0212,0.0258,0.0258,0.0333,0.0272,0.0364,0.0318,0.032,0.0327,0.033,0.0302,0.023,0.031,0.0446,0.0461,0.0317,0.0315,0.0313,0,0.0186,0.0172,0.0185,0.0173,0.0161,0.0183,0.0183,0.0214,0.025,0.0316,0.0362,0.0418,0.0472,0.0493,0.0485,0.044,0.0579,0.0518,0.0501,0.0497,0.052,0.0513,0.0679,0.0599,0.0599,0.0599,0.0599,0,0.0207,0.0216,0.0216,0.0221,0.0266,0.024,0.0307,0.0322,0.038,0.0459,0.0449,0.0532,0.0535,0.059,0.0558,0.0595,0.0641,0.0553,0.0545,0.0543,0.0538,0.0555,0.0543,0.0602,0.0601,0.0601,0.06,0,0.0244,0.0237,0.026,0.0272,0.0287,0.0323,0.037,0.0428,0.0467,0.0575,0.0604,0.0662,0.0734,0.0713,0.0766,0.0708,0.0746,0.0717,0.0695,0.0684,0.0656,0.0646,0.0802,0.0832,0.0728,0.0728,0.0729,0,0.0261,0.0277,0.0309,0.0341,0.035,0.0401,0.0448,0.0478,0.0538,0.0661,0.0728,0.0817,0.0898,0.0946,0.0873,0.0839,0.0812,0.0801,0.0723,0.0705,0.0689,0.0676,0.0689,0.0776,0.0777,0.0777,0.0778,0,0.0298,0.0314,0.0338,0.0406,0.0456,0.0513,0.0578,0.0638,0.07,0.0798,0.0941,0.102,0.1051,0.1049,0.0971,0.0921,0.0832,0.081,0.083,0.0793,0.0759,0.0766,0.0633,0.0783,0.0783,0.0782,0.0782,0.0782,0.0335,0.0365,0.0408,0.0473,0.0537,0.0622,0.0685,0.0767,0.0886,0.104,0.1095,0.1212,0.1173,0.1081,0.1027,0.0901,0.0892,0.0849,0.0853,0.0852,0.0861,0.0722,0.0831,0.083,0.083,0.083,0.083,0,0.0372,0.041,0.0472,0.0552,0.0633,0.0654,0.0772,0.0848,0.1,0.1138,0.1267,0.1283,0.1261,0.1153,0.099,0.0949,0.093,0.0931,0.0937,0.0958,0.0881,0.086,0.0936,0.0936,0.0936,0.0936,0.0936,0.0936,0.0396,0.0455,0.0484,0.0617,0.0681,0.0789,0.086,0.0993,0.1101,0.1257,0.1298,0.1325,0.1217,0.1102,0.1019,0.1,0.1025,0.1011,0.103,0.0971,0.0964,0.0957,0.0937,0.1028,0.1028,0.1116,0.1117,0.1118]}],[{"header":{"parameterUnit":"m.s-1","parameterCategory":2,"la1":30.2991,"la2":30.254,"lo1":-89.0895,"lo2":-89.0444,"dy":0.0017,"dx":0.0017,"nx":28,"ny":28,"refTime":"2024-06-11T03:00:00:Z","depth":"2","parameterNumber":2,"parameterNumberName":"U-component_of_CURRENTS"},"data":[0,0,0,0,0,0,0,0,0,0,0,0,0,0,0,0,0,0,0,0,0,0,0,0,0,0,0,0,0,0,0,0,0,0,0,0,0,0,0,0,0,0,0,0,0,0,0,0,0,0,0,0,0,0,0,0,0,0,0.1443,0.1443,0,0.154,0.1542,0.1543,0.1605,0.1605,0.1605,0.1605,0.1749,0.1753,0.1757,0,0,0,0,0,0,0,0,0,0,0,0,0,0.142,0.1419,0.1443,0.1444,0.1444,0.154,0.1542,0.1544,0.1605,0.1605,0.1605,0.1605,0.1748,0.1753,0.1757,0,0,0,0,0,0,0,0,0,0,0,0,0,0.1468,0.1419,0.1443,0.1483,0.1488,0.154,0.1542,0.1544,0.1605,0.1605,0.1605,0.1605,0.1746,0.1752,0.1758,0.1795,0,0,0.1776,0.1778,0,0,0,0,0,0,0,0,0.1465,0.147,0.1477,0.1481,0.1485,0.1557,0.1586,0.1629,0.1605,0.1565,0.1605,0.1605,0.1686,0.1697,0.1721,0.1802,0.1808,0.1776,0.178,0.1782,0.1784,0,0,0,0,0,0,0,0.1462,0.1466,0.1486,0.1477,0.1483,0.1534,0.154,0.1595,0.1629,0.1569,0.1572,0.1576,0.169,0.1715,0.1725,0.181,0.1776,0.1781,0.1785,0.1787,0.1963,0.1964,0,0,0,0,0,0,0.1435,0.1462,0.1483,0.1488,0.147,0.1534,0.1541,0.1537,0.1628,0.164,0.1576,0.1579,0.1705,0.1718,0.173,0.1867,0.1782,0.1788,0.1791,0.1961,0.1963,0.1964,0,0,0,0,0,0,0.1434,0.1436,0.1479,0.1475,0.1483,0.1533,0.1529,0.1539,0.1575,0.1632,0.1646,0.1601,0.1706,0.1722,0.1804,0.1869,0.179,0.1796,0.196,0.1962,0.1963,0.2084,0,0,0,0,0,0,0.1433,0.1435,0.1436,0.1472,0.1482,0.1549,0.1529,0.1541,0.1574,0.1579,0.1658,0.1671,0.1707,0.1795,0.181,0.1876,0.18,0.1958,0.1961,0.1963,0.2078,0.2089,0.2099,0,0,0,0,0,0.1432,0.1436,0.1435,0.1438,0.1477,0.1551,0.1564,0.1601,0.1575,0.1625,0.1659,0.1669,0.1819,0.1802,0.1819,0.1888,0.1957,0.196,0.1963,0.2074,0.2087,0.2099,0,0,0,0,0,0,0.1437,0.1443,0.1443,0.1451,0.1512,0.1561,0.159,0.1603,0.1667,0.1661,0.1699,0.1717,0.182,0.1818,0.1798,0.1936,0.1884,0.189,0.1962,0.1975,0.1986,0.1984,0.1805,0,0,0,0,0,0.1431,0.1432,0.147,0.1484,0.1503,0.1543,0.1572,0.1603,0.1652,0.1678,0.174,0.1782,0.1842,0.1877,0.1941,0.2014,0.1984,0.2059,0.2069,0.2078,0.2084,0.2142,0.216,0.1973,0.1973,0.1973,0,0,0.1435,0.1439,0.144,0.1485,0.1517,0.1584,0.1563,0.1618,0.1684,0.1684,0.1797,0.1839,0.187,0.1973,0.2014,0.1981,0.2096,0.2082,0.209,0.2091,0.2147,0.2166,0.2182,0.1974,0.1974,0.1974,0,0,0.1447,0.1447,0.1455,0.1517,0.1571,0.1613,0.1629,0.1703,0.1745,0.185,0.186,0.1934,0.2032,0.208,0.2104,0.2196,0.216,0.2205,0.2259,0.2317,0.2333,0.2348,0.2253,0.2258,0.2199,0.2199,0.2199,0,0.1454,0.1462,0.1482,0.1533,0.1579,0.1626,0.1683,0.1751,0.1855,0.1882,0.1904,0.2041,0.2089,0.2175,0.2221,0.2229,0.2198,0.2219,0.2334,0.2348,0.2361,0.2261,0.2266,0.2205,0.2205,0.2204,0.2203,0,0.1492,0.1513,0.1533,0.1602,0.1674,0.1732,0.1822,0.1898,0.1944,0.2001,0.2113,0.219,0.2254,0.2294,0.23,0.2404,0.2325,0.2355,0.2311,0.2388,0.2275,0.2278,0.2214,0.2212,0.221,0.2209,0,0,0.1464,0.1533,0.1544,0.1589,0.1707,0.1776,0.1878,0.1974,0.2023,0.2152,0.222,0.2354,0.2371,0.2397,0.2419,0.2483,0.2541,0.2463,0.2463,0.2378,0.256,0.2332,0.2311,0.2609,0.2612,0.2615,0.2415,0,0.1483,0.1559,0.1597,0.1714,0.177,0.1851,0.1944,0.2049,0.2131,0.2232,0.23,0.2387,0.2414,0.2444,0.2526,0.255,0.2566,0.2584,0.2487,0.2481,0.2283,0.2316,0.217,0.1969,0.2417,0.2417,0.2417,0,0.1511,0.1559,0.1633,0.1748,0.1777,0.1862,0.1995,0.2089,0.2213,0.2264,0.2355,0.2408,0.2498,0.2531,0.2592,0.2602,0.2588,0.2598,0.2592,0.2348,0.2263,0.1979,0.1956,0.2421,0.242,0.242,0.242,0,0.149,0.1595,0.164,0.1693,0.1828,0.1871,0.1958,0.2088,0.2142,0.2276,0.2311,0.243,0.2459,0.2535,0.2529,0.2578,0.256,0.262,0.2373,0.235,0.2187,0.2145,0.2665,0.2666,0.2666,0.2667,0.2667,0,0.1494,0.1549,0.1632,0.1673,0.1746,0.1866,0.1948,0.2035,0.2142,0.2191,0.2314,0.2338,0.2482,0.2479,0.251,0.2391,0.2521,0.2363,0.2312,0.2208,0.2172,0.2557,0.2548,0.2659,0.2661,0.2662,0.2664,0,0.1462,0.1506,0.1576,0.1691,0.1726,0.1793,0.1914,0.1969,0.207,0.2135,0.2162,0.2254,0.2233,0.2279,0.2331,0.2287,0.2252,0.2171,0.1947,0.1875,0.1996,0.1995,0.1892,0.1883,0.1875,0.1869,0.1863,0,0.1448,0.1469,0.1563,0.1595,0.1637,0.1739,0.1783,0.1909,0.1954,0.2053,0.2056,0.2057,0.2019,0.1926,0.1887,0.1797,0.1981,0.1576,0.1682,0.197,0.1932,0.1942,0.1951,0.1471,0.1463,0.1457,0.1451,0,0.1427,0.1439,0.1485,0.1531,0.1577,0.1641,0.1721,0.1732,0.1853,0.1877,0.1857,0.1827,0.171,0.1548,0.1406,0.1369,0.1594,0.1429,0.1838,0.1683,0.1557,0.1525,0.1551,0.1392,0.1398,0.1402,0.1406,0.1408,0.14,0.1408,0.1438,0.1482,0.1522,0.1541,0.1547,0.1594,0.1606,0.1589,0.1617,0.149,0.1436,0.1136,0.1038,0.0964,0.1119,0.1102,0.1132,0.1167,0.1147,0.1016,0.0735,0.0737,0.0739,0.0741,0.0742,0,0.1374,0.1379,0.1404,0.1421,0.141,0.1476,0.1492,0.1448,0.1391,0.1344,0.1276,0.1061,0.0872,0.0836,0.0622,0.0546,0.0647,0.052,0.0696,0.0751,0.0801,0.0775,0.0258,0.0257,0.0255,0.0255,0,0,0.1364,0.1352,0.1349,0.1309,0.1321,0.1288,0.1278,0.1184,0.1123,0.0978,0.0867,0.0826,0.0798,0.0553,0.0474,0.0342,0.0563,0.0301,0.0684,0.0949,0.0999,0.1113,0.1127,0,0,0,0,0]},{"header":{"parameterUnit":"m.s-1","parameterCategory":2,"la1":30.2991,"la2":30.254,"lo1":-89.0895,"lo2":-89.0444,"dy":0.0017,"dx":0.0017,"nx":28,"ny":28,"refTime":"2024-06-11T03:00:00:Z","depth":"2","parameterNumber":3,"parameterNumberName":"V-component_of_CURRENTS"},"data":[0,0,0,0,0,0,0,0,0,0,0,0,0,0,0,0,0,0,0,0,0,0,0,0,0,0,0,0,0,0,0,0,0,0,0,0,0,0,0,0,0,0,0,0,0,0,0,0,0,0,0,0,0,0,0,0,0,0,-0.0022,-0.0023,0,-0.0094,-0.0096,-0.0097,-0.0158,-0.0158,-0.0158,-0.0158,-0.0175,-0.0175,-0.0175,0,0,0,0,0,0,0,0,0,0,0,0,0,0.0013,0.0013,-0.0022,-0.0023,-0.0023,-0.0094,-0.0096,-0.0097,-0.0157,-0.0158,-0.0158,-0.0159,-0.0175,-0.0175,-0.0175,0,0,0,0,0,0,0,0,0,0,0,0,0,-0.0029,0.0013,-0.0022,-0.0059,-0.0063,-0.0094,-0.0096,-0.0097,-0.0157,-0.0158,-0.0158,-0.0159,-0.0175,-0.0175,-0.0175,-0.0168,0,0,-0.0176,-0.0176,0,0,0,0,0,0,0,0,-0.0026,-0.003,-0.0053,-0.0057,-0.0061,-0.0114,-0.0089,-0.0117,-0.0157,-0.0126,-0.0158,-0.0159,-0.0146,-0.0149,-0.0168,-0.0169,-0.0169,-0.0176,-0.0176,-0.0176,-0.0176,0,0,0,0,0,0,0,-0.0023,-0.0028,-0.0055,-0.0054,-0.0058,-0.0089,-0.0095,-0.0096,-0.0135,-0.0129,-0.0132,-0.0134,-0.0149,-0.0168,-0.0169,-0.017,-0.0176,-0.0176,-0.0176,-0.0177,-0.0119,-0.0117,0,0,0,0,0,0,-0.0003,-0.0025,-0.0053,-0.0057,-0.004,-0.0089,-0.0096,-0.01,-0.0136,-0.0141,-0.0133,-0.0136,-0.0167,-0.0168,-0.0169,-0.0142,-0.0176,-0.0177,-0.0177,-0.012,-0.0118,-0.0117,0,0,0,0,0,0,-0.0002,-0.0005,-0.005,-0.0039,-0.0047,-0.0088,-0.0092,-0.0101,-0.0128,-0.0139,-0.0145,-0.0151,-0.0168,-0.0169,-0.0159,-0.0144,-0.0177,-0.0177,-0.0122,-0.012,-0.0118,-0.01,0,0,0,0,0,0,-0.0001,-0.0004,-0.0004,-0.0038,-0.0046,-0.0081,-0.0092,-0.0102,-0.0125,-0.013,-0.0156,-0.0158,-0.0168,-0.0158,-0.0159,-0.0145,-0.0177,-0.0125,-0.0121,-0.0118,-0.0103,-0.0097,-0.0092,0,0,0,0,0,0.0001,0.0002,-0.0003,-0.0007,-0.0043,-0.0082,-0.009,-0.0124,-0.0125,-0.0147,-0.0141,-0.0158,-0.0138,-0.0158,-0.0159,-0.0144,-0.0126,-0.0122,-0.0119,-0.0105,-0.0098,-0.0093,0,0,0,0,0,0,0.0014,-0.0004,-0.0011,-0.0016,-0.005,-0.0091,-0.0101,-0.0123,-0.014,-0.013,-0.0145,-0.0146,-0.0133,-0.0132,-0.0153,-0.0113,-0.0131,-0.0128,-0.012,-0.0114,-0.0109,-0.0073,-0.0177,0,0,0,0,0,0.0022,0.002,-0.0012,-0.0017,-0.0027,-0.0063,-0.0081,-0.0103,-0.0118,-0.0128,-0.0151,-0.0141,-0.0117,-0.0112,-0.011,-0.009,-0.0069,-0.0075,-0.007,-0.0066,-0.0034,0.0027,0.0041,-0.0104,-0.0104,-0.0104,0,0,0.0028,0.0018,0.0016,-0.0013,-0.0034,-0.0049,-0.0077,-0.0099,-0.0099,-0.0121,-0.0132,-0.0135,-0.0109,-0.009,-0.0082,-0.0088,-0.0021,-0.0061,-0.0058,-0.0028,0.0033,0.0047,0.006,-0.0102,-0.0102,-0.0103,0,0,0.0041,0.003,0.0033,0.0008,-0.0018,-0.0039,-0.0045,-0.0092,-0.0099,-0.0109,-0.0103,-0.0083,-0.0096,-0.0057,-0.0034,0.001,-0.0002,-0.0004,0.0054,0.0112,0.0125,0.0136,0.0144,0.0156,0.0005,0.0005,0.0005,0,0.0048,0.0052,0.0023,0.0017,0.0014,-0.0031,-0.0028,-0.0044,-0.0086,-0.0055,-0.0108,-0.0058,-0.0065,0.0032,0.0035,0.0023,0.0033,0.0021,0.0119,0.0131,0.0142,0.0147,0.0161,0.0006,0.0006,0.0006,0.0006,0,0.0059,0.0062,0.0062,0.0049,0.0033,0.0026,0.0009,0.0005,-0.0013,-0.0019,0.0031,0.002,0.0064,0.0055,0.0051,0.0143,0.0113,0.0108,0.0099,0.0158,0.0159,0.0172,0.0008,0.0008,0.0007,0.0007,0,0,0.0084,0.0075,0.0076,0.0091,0.0058,0.0054,0.0079,0.0105,0.0163,0.0108,0.0184,0.0192,0.0182,0.0211,0.0206,0.0246,0.0299,0.0206,0.0208,0.0206,0.039,0.0337,0.0345,0.0302,0.0306,0.0308,0.0344,0,0.0106,0.0116,0.0109,0.013,0.0136,0.0135,0.0171,0.0195,0.0206,0.0255,0.0279,0.032,0.0246,0.0269,0.0299,0.0312,0.0342,0.0288,0.0342,0.0344,0.0285,0.0364,0.0351,0.0381,0.0357,0.0359,0.036,0,0.0122,0.0131,0.0157,0.0207,0.0217,0.0226,0.0315,0.0339,0.0415,0.0433,0.0477,0.0471,0.0529,0.0447,0.0498,0.0461,0.0433,0.0423,0.0424,0.039,0.0318,0.0328,0.0406,0.0383,0.0381,0.0379,0.0378,0,0.0155,0.0177,0.0211,0.0213,0.0247,0.0296,0.0326,0.0398,0.0466,0.0546,0.0593,0.0641,0.0665,0.0661,0.0587,0.0559,0.0624,0.0591,0.052,0.0512,0.0527,0.0516,0.0646,0.0646,0.0646,0.0646,0.0646,0,0.0183,0.0213,0.0231,0.0245,0.0327,0.0334,0.0442,0.0493,0.0588,0.0681,0.0677,0.0747,0.0718,0.0725,0.0659,0.0619,0.0679,0.056,0.0543,0.0526,0.0515,0.0543,0.053,0.0647,0.0647,0.0647,0.0647,0,0.021,0.0216,0.026,0.0309,0.0337,0.039,0.0494,0.0583,0.0649,0.0772,0.0799,0.0851,0.085,0.0793,0.0788,0.0712,0.0683,0.0647,0.0593,0.0571,0.0513,0.0501,0.0614,0.0613,0.0612,0.0611,0.0611,0,0.0225,0.0244,0.0301,0.034,0.0364,0.0442,0.0518,0.0606,0.0697,0.0827,0.0899,0.093,0.0944,0.0892,0.0788,0.0694,0.0671,0.0613,0.0578,0.055,0.0522,0.0511,0.0501,0.0585,0.0584,0.0583,0.0583,0,0.0257,0.0273,0.0309,0.038,0.0452,0.0548,0.0649,0.0728,0.084,0.0933,0.1039,0.1057,0.0993,0.0898,0.075,0.0681,0.063,0.0596,0.064,0.058,0.0522,0.0494,0.0485,0.0577,0.0578,0.0578,0.0578,0.0579,0.0286,0.0316,0.0359,0.0434,0.0519,0.0634,0.0719,0.0824,0.0957,0.1072,0.1088,0.1077,0.0995,0.0783,0.0686,0.0575,0.0594,0.0541,0.0544,0.0548,0.0524,0.0467,0.0504,0.0504,0.0504,0.0504,0.0504,0,0.0315,0.0352,0.0416,0.0507,0.0597,0.0644,0.0805,0.0882,0.1011,0.1056,0.1102,0.0966,0.0863,0.0749,0.0583,0.0502,0.0501,0.0464,0.0485,0.0491,0.0497,0.0471,0.0437,0.0436,0.0436,0.0435,0,0,0.0334,0.0387,0.0416,0.055,0.0623,0.0763,0.0852,0.0954,0.1006,0.103,0.0992,0.0957,0.0844,0.0704,0.0609,0.0517,0.0517,0.0492,0.0556,0.0599,0.0605,0.0551,0.0519,0,0,0,0,0]}],[{"header":{"parameterUnit":"m.s-1","parameterCategory":2,"la1":30.2991,"la2":30.254,"lo1":-89.0895,"lo2":-89.0444,"dy":0.0017,"dx":0.0017,"nx":28,"ny":28,"refTime":"2024-06-11T03:00:00:Z","depth":"4","parameterNumber":2,"parameterNumberName":"U-component_of_CURRENTS"},"data":[0,0,0,0,0,0,0,0,0,0,0,0,0,0,0,0,0,0,0,0,0,0,0,0,0,0,0,0,0,0,0,0,0,0,0,0,0,0,0,0,0,0,0,0,0,0,0,0,0,0,0,0,0,0,0,0,0,0,0.0741,0.074,0,0.0401,0.0395,0.0389,0.0263,0.0266,0.0269,0.0272,0.0139,0.0132,0.0126,0,0,0,0,0,0,0,0,0,0,0,0,0,0.0849,0.0849,0.0742,0.074,0.0737,0.0402,0.0395,0.0388,0.0262,0.0266,0.027,0.0274,0.0141,0.0133,0.0125,0,0,0,0,0,0,0,0,0,0,0,0,0,0.0664,0.0849,0.0742,0.0651,0.0641,0.0403,0.0394,0.0386,0.0261,0.0266,0.0271,0.0275,0.0143,0.0134,0.0124,-0.0032,0,0,0.0094,0.009,0,0,0,0,0,0,0,0,0.0675,0.0658,0.0667,0.0657,0.0646,0.0399,0.0385,0.0264,0.026,0.0381,0.0272,0.0278,0.0257,0.0238,0.0127,-0.0039,-0.0044,0.0093,0.0087,0.0083,0.008,0,0,0,0,0,0,0,0.0689,0.0669,0.0583,0.0664,0.0652,0.048,0.046,0.0356,0.0282,0.0371,0.0367,0.0364,0.025,0.0136,0.0124,-0.0046,0.0094,0.0085,0.0079,0.0075,0.0138,0.0145,0,0,0,0,0,0,0.0794,0.0684,0.0595,0.0576,0.0699,0.0478,0.0454,0.0455,0.0279,0.0261,0.036,0.036,0.0151,0.0136,0.012,0.0211,0.0083,0.0074,0.0069,0.0131,0.014,0.0148,0,0,0,0,0,0,0.0798,0.0789,0.0609,0.0639,0.0608,0.0477,0.0474,0.0446,0.0396,0.0272,0.0255,0.0352,0.0154,0.0134,0.0092,0.0196,0.007,0.0061,0.0122,0.0133,0.0144,0.0212,0,0,0,0,0,0,0.0802,0.0792,0.0805,0.0647,0.0611,0.0483,0.0471,0.0437,0.0395,0.0391,0.0258,0.0246,0.0156,0.0107,0.0082,0.018,0.0053,0.0112,0.0127,0.014,0.0201,0.0225,0.0245,0,0,0,0,0,0.0807,0.081,0.0808,0.0797,0.0642,0.0483,0.0443,0.0349,0.0392,0.0329,0.0296,0.0253,0.0188,0.0099,0.007,0.0168,0.0105,0.0123,0.0139,0.0191,0.022,0.0245,0,0,0,0,0,0,0.0844,0.0795,0.0789,0.0776,0.0657,0.0472,0.042,0.0383,0.0288,0.0325,0.0239,0.0219,0.0255,0.0215,0.0123,0.026,0.0183,0.0195,0.0234,0.026,0.0282,0.0222,0.0045,0,0,0,0,0,0.0872,0.0874,0.0771,0.0753,0.0715,0.0583,0.0517,0.0457,0.0369,0.033,0.0243,0.0246,0.0283,0.0273,0.0241,0.023,0.0196,0.0328,0.035,0.0368,0.0318,0.0395,0.0415,0.0204,0.0203,0.0203,0,0,0.0883,0.0859,0.0858,0.0763,0.0671,0.0565,0.0548,0.0461,0.0411,0.0336,0.0248,0.0276,0.0303,0.0321,0.0345,0.0301,0.042,0.039,0.0402,0.0342,0.0414,0.0433,0.0449,0.0215,0.0213,0.0211,0,0,0.0886,0.0888,0.0879,0.0779,0.0684,0.0581,0.059,0.043,0.0411,0.0341,0.0362,0.0422,0.0381,0.0408,0.0447,0.0577,0.0534,0.0671,0.0698,0.0776,0.079,0.0802,0.078,0.0789,0.0681,0.0681,0.0682,0,0.0903,0.0872,0.0835,0.0767,0.0687,0.0615,0.0529,0.0471,0.0322,0.0355,0.0355,0.0408,0.0423,0.0518,0.0607,0.0611,0.0629,0.0567,0.0791,0.0803,0.0813,0.0788,0.0797,0.0687,0.0686,0.0686,0.0685,0,0.0861,0.0826,0.08,0.0706,0.0605,0.0514,0.0441,0.0416,0.0433,0.0397,0.0486,0.047,0.0528,0.0615,0.0641,0.0788,0.0765,0.0797,0.0683,0.0836,0.0803,0.0811,0.0694,0.0693,0.0691,0.069,0,0,0.0908,0.0803,0.0789,0.0742,0.0567,0.0487,0.0465,0.0424,0.0475,0.0431,0.0494,0.06,0.0633,0.0683,0.0741,0.081,0.0927,0.0857,0.0859,0.0761,0.1049,0.0934,0.0929,0.102,0.1022,0.1024,0.0988,0,0.0873,0.078,0.0712,0.0583,0.0507,0.0449,0.0415,0.0402,0.0424,0.046,0.0575,0.0641,0.0657,0.0738,0.0807,0.0916,0.0956,0.0928,0.0977,0.0975,0.0795,0.0938,0.1032,0.0994,0.0995,0.0996,0.0997,0,0.0828,0.0771,0.0667,0.0566,0.0533,0.0456,0.0441,0.0409,0.0494,0.0544,0.0622,0.0679,0.0795,0.0807,0.0931,0.093,0.0991,0.1032,0.1034,0.0886,0.0875,0.0824,0.101,0.1009,0.1008,0.1007,0.1006,0,0.0865,0.0735,0.0674,0.0609,0.0481,0.0498,0.0458,0.0471,0.0501,0.0615,0.0668,0.0752,0.0834,0.0918,0.1007,0.1019,0.111,0.1137,0.1037,0.1025,0.1092,0.108,0.1201,0.1201,0.1201,0.1201,0.1202,0,0.0824,0.0774,0.0712,0.0668,0.0632,0.0539,0.0537,0.0568,0.0601,0.0632,0.0722,0.075,0.0889,0.0955,0.1016,0.1025,0.1117,0.102,0.1026,0.113,0.1123,0.1095,0.1083,0.12,0.12,0.1201,0.1201,0,0.0842,0.0797,0.0728,0.0654,0.0646,0.0629,0.0578,0.0584,0.0633,0.0681,0.0739,0.0816,0.0888,0.0942,0.1065,0.1024,0.1062,0.1039,0.1075,0.1087,0.0905,0.0899,0.0911,0.0907,0.0904,0.0901,0.0898,0,0.083,0.0808,0.0752,0.072,0.0688,0.0656,0.0627,0.063,0.0618,0.0688,0.0715,0.0814,0.0852,0.0881,0.0953,0.0976,0.098,0.0949,0.0973,0.0878,0.0884,0.0883,0.0882,0.0893,0.0892,0.0891,0.089,0,0.0806,0.0817,0.0775,0.0725,0.069,0.062,0.0594,0.06,0.0599,0.0666,0.0695,0.0734,0.0773,0.0822,0.0839,0.0866,0.0953,0.0914,0.0921,0.0943,0.0857,0.0865,0.0868,0.0879,0.088,0.0881,0.0882,0,0.0804,0.0783,0.0756,0.0689,0.0645,0.0568,0.0559,0.0523,0.053,0.0615,0.0618,0.0699,0.0766,0.0762,0.0786,0.0791,0.0783,0.0754,0.077,0.0783,0.076,0.0632,0.0583,0,0,0,0,0,0.0778,0.0752,0.0704,0.0608,0.0557,0.053,0.0507,0.0495,0.0533,0.0538,0.0575,0.0612,0.0638,0.0673,0.0656,0.0708,0.0775,0.0678,0.0747,0.0814,0.0827,0.0813,0,0,0,0,0,0,0.0757,0.074,0.0694,0.0544,0.0478,0.0401,0.0391,0.0414,0.041,0.0483,0.0514,0.0558,0.0609,0.0663,0.0649,0.0654,0.0674,0.0721,0.0718,0.0806,0.0818,0.0829,0.0819,0,0,0,0,0]},{"header":{"parameterUnit":"m.s-1","parameterCategory":2,"la1":30.2991,"la2":30.254,"lo1":-89.0895,"lo2":-89.0444,"dy":0.0017,"dx":0.0017,"nx":28,"ny":28,"refTime":"2024-06-11T03:00:00:Z","depth":"4","parameterNumber":3,"parameterNumberName":"V-component_of_CURRENTS"},"data":[0,0,0,0,0,0,0,0,0,0,0,0,0,0,0,0,0,0,0,0,0,0,0,0,0,0,0,0,0,0,0,0,0,0,0,0,0,0,0,0,0,0,0,0,0,0,0,0,0,0,0,0,0,0,0,0,0,0,0.0068,0.0069,0,0.0213,0.0215,0.0218,0.0281,0.0279,0.0278,0.0277,0.0592,0.0602,0.0611,0,0,0,0,0,0,0,0,0,0,0,0,0,0.0043,0.0043,0.0068,0.0069,0.007,0.0212,0.0215,0.0219,0.0281,0.0279,0.0278,0.0276,0.0589,0.06,0.0612,0,0,0,0,0,0,0,0,0,0,0,0,0,0.0117,0.0042,0.0068,0.011,0.0114,0.0212,0.0216,0.0219,0.0281,0.0279,0.0277,0.0276,0.0585,0.0599,0.0613,0.074,0,0,0.0657,0.0663,0,0,0,0,0,0,0,0,0.0113,0.012,0.0103,0.0107,0.0112,0.0217,0.0321,0.0398,0.0282,0.023,0.0277,0.0275,0.0477,0.05,0.0545,0.0754,0.0768,0.0659,0.0667,0.0673,0.0677,0,0,0,0,0,0,0,0.0107,0.0115,0.0137,0.0104,0.0109,0.0188,0.0196,0.0337,0.0374,0.0234,0.0236,0.0235,0.0482,0.0531,0.0553,0.0773,0.0658,0.0671,0.068,0.0685,0.0987,0.0986,0,0,0,0,0,0,0.0059,0.0109,0.0132,0.014,0.0095,0.0188,0.0198,0.0194,0.0369,0.0389,0.0236,0.0237,0.0507,0.0536,0.0564,0.0707,0.0673,0.0687,0.0695,0.0987,0.0987,0.0986,0,0,0,0,0,0,0.0058,0.0059,0.0126,0.0119,0.0131,0.0188,0.0186,0.0198,0.0239,0.0366,0.0392,0.0261,0.0507,0.0544,0.0707,0.072,0.0693,0.0706,0.0988,0.0987,0.0986,0.1004,0,0,0,0,0,0,0.0056,0.0058,0.0058,0.0115,0.0129,0.0194,0.0187,0.0202,0.0236,0.0238,0.0397,0.0424,0.0508,0.0685,0.0721,0.0739,0.0717,0.0989,0.0988,0.0987,0.1004,0.1003,0.1003,0,0,0,0,0,0.0055,0.0056,0.0057,0.006,0.0121,0.0194,0.0212,0.0253,0.0238,0.028,0.0384,0.0419,0.0699,0.07,0.0742,0.0763,0.0989,0.0988,0.0987,0.1004,0.1004,0.1003,0,0,0,0,0,0,0.0054,0.0063,0.0066,0.0071,0.0129,0.02,0.0228,0.0252,0.0365,0.0365,0.0477,0.0516,0.0645,0.0699,0.0695,0.083,0.0825,0.0832,0.0823,0.0824,0.0823,0.0765,0.0729,0,0,0,0,0,0.0047,0.0047,0.0085,0.0097,0.0112,0.017,0.0203,0.0233,0.0322,0.0366,0.0482,0.0576,0.0674,0.0745,0.085,0.0974,0.0942,0.0986,0.0985,0.0985,0.0957,0.0922,0.0916,0.0982,0.0982,0.0982,0,0,0.005,0.0054,0.0056,0.0097,0.0135,0.0204,0.0189,0.0237,0.0318,0.0391,0.055,0.0609,0.0706,0.0829,0.0885,0.0881,0.0949,0.0983,0.0984,0.0955,0.092,0.0913,0.0907,0.0981,0.0981,0.0981,0,0,0.0061,0.0057,0.0064,0.0117,0.0161,0.0219,0.0226,0.031,0.0364,0.0527,0.0553,0.0599,0.0828,0.0845,0.0893,0.0946,0.0952,0.0978,0.095,0.0917,0.0911,0.0906,0.0858,0.0848,0.0975,0.0975,0.0975,0,0.0066,0.0081,0.0089,0.013,0.0181,0.0222,0.0285,0.0368,0.0508,0.0539,0.0581,0.073,0.0818,0.0864,0.0885,0.0945,0.0932,0.096,0.0917,0.0911,0.0905,0.0857,0.0846,0.0976,0.0976,0.0976,0.0976,0,0.0102,0.0125,0.0139,0.0208,0.0278,0.0334,0.0431,0.0512,0.0582,0.0634,0.0703,0.0782,0.0841,0.0861,0.0929,0.0901,0.0908,0.0926,0.092,0.0899,0.0851,0.0838,0.0977,0.0977,0.0977,0.0976,0,0,0.0092,0.0146,0.0158,0.0201,0.0319,0.0383,0.051,0.0608,0.0631,0.0744,0.0767,0.0871,0.0824,0.0862,0.0873,0.0839,0.0804,0.0879,0.0877,0.0834,0.0732,0.074,0.0727,0.0839,0.0837,0.0836,0.0716,0,0.0124,0.0186,0.0231,0.0353,0.0402,0.0493,0.0601,0.0692,0.0756,0.0803,0.0791,0.0842,0.0853,0.0858,0.0822,0.0828,0.0774,0.0833,0.0754,0.075,0.0763,0.0713,0.0829,0.0707,0.0704,0.0702,0.0701,0,0.0163,0.0196,0.0281,0.0391,0.042,0.0515,0.0633,0.0738,0.0786,0.082,0.0797,0.0805,0.0779,0.079,0.0716,0.077,0.0743,0.0716,0.0712,0.0697,0.0735,0.073,0.0679,0.068,0.0682,0.0683,0.0685,0,0.0157,0.0253,0.0313,0.0362,0.0488,0.055,0.0645,0.0719,0.0782,0.0805,0.0815,0.0765,0.0765,0.0712,0.0697,0.0723,0.0601,0.0628,0.0571,0.0571,0.0595,0.0602,0.0525,0.0525,0.0525,0.0526,0.0526,0,0.0189,0.0247,0.0305,0.0349,0.0439,0.0538,0.0618,0.0692,0.0743,0.0775,0.0798,0.0778,0.0755,0.0708,0.0671,0.0589,0.0579,0.0533,0.0533,0.0606,0.0616,0.0586,0.0595,0.0521,0.0522,0.0523,0.0524,0,0.0191,0.0222,0.0294,0.0391,0.0436,0.051,0.0655,0.0691,0.0743,0.0781,0.0805,0.0808,0.0758,0.0697,0.0606,0.0562,0.048,0.0443,0.0505,0.0516,0.0469,0.048,0.0352,0.0351,0.035,0.0349,0.0349,0,0.0198,0.0222,0.0314,0.0358,0.0409,0.0519,0.0592,0.0696,0.0731,0.0785,0.0794,0.0772,0.0758,0.0608,0.0561,0.0444,0.0434,0.0377,0.0421,0.0434,0.0447,0.0459,0.0471,0.0348,0.0347,0.0347,0.0347,0,0.0214,0.0228,0.028,0.0348,0.0428,0.0527,0.0632,0.0657,0.0756,0.0786,0.0775,0.0736,0.0663,0.0587,0.0506,0.0426,0.0415,0.0369,0.037,0.041,0.0428,0.0444,0.0457,0.0344,0.0345,0.0345,0.0345,0,0.0221,0.0244,0.0285,0.036,0.0443,0.0521,0.0585,0.0644,0.0701,0.0752,0.0732,0.0693,0.0673,0.0574,0.0497,0.0431,0.0412,0.0382,0.0382,0.0384,0.045,0.0481,0.0383,0,0,0,0,0,0.0231,0.0254,0.0308,0.0381,0.0451,0.0511,0.0607,0.0656,0.0716,0.0703,0.0727,0.0667,0.0579,0.0546,0.0474,0.0479,0.0399,0.0392,0.0364,0.033,0.0333,0.0408,0,0,0,0,0,0,0.0237,0.0276,0.0296,0.0375,0.043,0.0522,0.0586,0.0632,0.063,0.0667,0.0619,0.0627,0.054,0.0608,0.0461,0.0446,0.0414,0.0363,0.0361,0.0328,0.0331,0.0333,0.0412,0,0,0,0,0]}]]